Location: Hanover
(52.3667°N, 9.7167°E)
Time: 15:44:08
(UTC+02:00)

Tiangong - Visible Passes

Search period start: 19 September 2024 00:00
Search period end: 29 September 2024 00:00
Orbit: 373 x 377 km, 41.5° (Epoch: 18 September)

Date Brightness Start Highest point End Pass type
(mag) Time Alt. Az. Time Alt. Az. Time Alt. Az.
21 Sep 0.3 20:40:12 10° S 20:40:51 10° S 20:41:12 10° SSE visible
22 Sep 0.5 21:12:48 10° SSW 21:13:12 11° SSW 21:13:12 11° SSW visible
23 Sep 0.3 20:10:11 10° SSW 20:11:15 11° S 20:12:20 10° SSE visible
24 Sep 0.4 20:43:16 10° SSW 20:44:13 11° S 20:44:54 10° S visible
